�������l�o���
Date,Time,MP-1(��Sv/h),MP-2(��Sv/h),MP-3(��Sv/h),MP-4(��Sv/h),MP-5(��Sv/h),MP-6(��Sv/h),MP-7(��Sv/h),MP-8(��Sv/h),����,����(m/s),���J
2020/07/12,00:00,0.649,0.911,0.586,1.108,0.785,0.387,0.659,0.621,��,4.8,��
2020/07/12,00:10,0.649,0.911,0.584,1.109,0.783,0.388,0.659,0.622,��,3.7,��
2020/07/12,00:20,0.648,0.913,0.586,1.110,0.785,0.388,0.659,0.620,��,2.8,��
2020/07/12,00:30,0.649,0.913,0.584,1.110,0.786,0.389,0.659,0.621,��쐼,2.6,��
2020/07/12,00:40,0.650,0.914,0.584,1.110,0.788,0.389,0.659,0.622,�쐼,2.6,��
2020/07/12,00:50,0.650,0.917,0.586,1.112,0.787,0.390,0.659,0.621,���k��,1.9,��
2020/07/12,01:00,0.650,0.916,0.588,1.110,0.788,0.391,0.661,0.620,�k��,0.8,��
2020/07/12,01:10,0.652,0.913,0.586,1.112,0.788,0.391,0.658,0.620,�k��,0.6,��
2020/07/12,01:20,0.652,0.915,0.585,1.110,0.786,0.391,0.660,0.622,-,CALM,��
2020/07/12,01:30,0.651,0.916,0.585,1.111,0.788,0.390,0.660,0.622,�k��,0.6,��
2020/07/12,01:40,0.651,0.917,0.587,1.111,0.787,0.389,0.659,0.623,��,0.6,��
2020/07/12,01:50,0.652,0.917,0.587,1.116,0.789,0.390,0.659,0.622,��,2.0,��
2020/07/12,02:00,0.652,0.917,0.587,1.113,0.788,0.389,0.661,0.623,�쐼,2.0,��
2020/07/12,02:10,0.649,0.916,0.586,1.113,0.787,0.389,0.659,0.624,�쐼,2.0,��
2020/07/12,02:20,0.650,0.917,0.587,1.114,0.789,0.390,0.659,0.625,�k��,2.0,��
2020/07/12,02:30,0.651,0.917,0.586,1.113,0.789,0.391,0.660,0.624,�k��,2.0,��
2020/07/12,02:40,0.649,0.915,0.587,1.112,0.790,0.389,0.661,0.624,�k�k��,3.3,��
2020/07/12,02:50,0.651,0.916,0.585,1.112,0.790,0.391,0.661,0.623,�k�k��,3.8,��
2020/07/12,03:00,0.652,0.916,0.586,1.115,0.790,0.389,0.660,0.622,�k�k��,3.4,��
2020/07/12,03:10,0.651,0.917,0.586,1.116,0.790,0.390,0.661,0.623,�k,3.8,��
2020/07/12,03:20,0.649,0.916,0.584,1.112,0.788,0.390,0.658,0.623,�k�k��,3.2,��
2020/07/12,03:30,0.648,0.918,0.584,1.114,0.789,0.387,0.659,0.624,�k�k��,2.8,��
2020/07/12,03:40,0.646,0.917,0.586,1.114,0.789,0.389,0.659,0.623,�k�k��,3.7,��
2020/07/12,03:50,0.647,0.916,0.584,1.114,0.789,0.389,0.659,0.622,�k�k��,4.1,��
2020/07/12,04:00,0.649,0.918,0.587,1.112,0.788,0.389,0.660,0.623,�k,4.0,��
2020/07/12,04:10,0.649,0.917,0.585,1.113,0.788,0.387,0.660,0.623,�k,4.8,��
2020/07/12,04:20,0.648,0.917,0.586,1.112,0.791,0.386,0.659,0.622,�k�k��,5.6,��
2020/07/12,04:30,0.647,0.918,0.586,1.114,0.790,0.387,0.660,0.622,�k,4.8,��
2020/07/12,04:40,0.649,0.916,0.585,1.114,0.789,0.387,0.659,0.623,�k,4.9,��
2020/07/12,04:50,0.648,0.919,0.585,1.113,0.789,0.387,0.660,0.622,�k,7.0,��
2020/07/12,05:00,0.648,0.918,0.585,1.113,0.790,0.387,0.661,0.620,�k,5.6,��
2020/07/12,05:10,0.648,0.916,0.584,1.115,0.789,0.386,0.660,0.622,�k,6.3,��
2020/07/12,05:20,0.646,0.916,0.585,1.114,0.789,0.386,0.659,0.620,�k,6.9,��
2020/07/12,05:30,0.648,0.916,0.586,1.114,0.788,0.387,0.659,0.621,�k�k��,5.8,��
2020/07/12,05:40,0.647,0.917,0.586,1.113,0.789,0.385,0.658,0.623,�k�k��,5.2,��
2020/07/12,05:50,0.648,0.916,0.585,1.111,0.790,0.386,0.658,0.623,�k�k��,5.2,��
2020/07/12,06:00,0.647,0.915,0.584,1.111,0.789,0.386,0.659,0.622,�k�k��,4.9,��
2020/07/12,06:10,0.647,0.916,0.585,1.112,0.788,0.386,0.658,0.622,�k�k��,4.8,��
2020/07/12,06:20,0.646,0.915,0.584,1.110,0.789,0.385,0.658,0.622,�k�k��,4.4,�L
2020/07/12,06:30,0.645,0.914,0.584,1.113,0.788,0.386,0.657,0.622,�k�k��,3.9,�L
2020/07/12,06:40,0.645,0.915,0.586,1.110,0.786,0.387,0.659,0.621,�k,3.5,��
2020/07/12,06:50,0.645,0.915,0.584,1.112,0.788,0.385,0.655,0.622,�k,2.9,��
2020/07/12,07:00,0.645,0.916,0.583,1.111,0.788,0.387,0.657,0.620,�k,2.6,��
2020/07/12,07:10,0.647,0.918,0.583,1.112,0.788,0.386,0.656,0.620,�k,3.2,��
2020/07/12,07:20,0.645,0.914,0.583,1.112,0.788,0.387,0.657,0.620,�k,3.0,��
2020/07/12,07:30,0.645,0.914,0.584,1.109,0.789,0.386,0.657,0.621,�k,3.3,��
2020/07/12,07:40,0.645,0.916,0.586,1.110,0.789,0.386,0.656,0.621,�k�k��,2.6,��
2020/07/12,07:50,0.645,0.916,0.583,1.112,0.789,0.387,0.657,0.622,�k�k��,3.0,��
2020/07/12,08:00,0.647,0.916,0.584,1.115,0.791,0.386,0.658,0.623,�k,3.6,��
2020/07/12,08:10,0.646,0.916,0.585,1.111,0.789,0.387,0.659,0.623,�k,3.6,�L
2020/07/12,08:20,0.645,0.916,0.584,1.112,0.790,0.385,0.659,0.622,�k,4.4,�L
2020/07/12,08:30,0.646,0.916,0.586,1.110,0.792,0.386,0.660,0.622,�k�k��,3.6,��
2020/07/12,08:40,0.645,0.916,0.584,1.111,0.791,0.385,0.659,0.622,�k,3.4,��
2020/07/12,08:50,0.647,0.915,0.583,1.111,0.793,0.386,0.660,0.622,�k�k��,4.5,�L
2020/07/12,09:00,0.645,0.915,0.583,1.113,0.789,0.384,0.659,0.621,�k�k��,4.7,��
2020/07/12,09:10,0.647,0.916,0.584,1.111,0.789,0.385,0.658,0.622,�k�k��,3.7,��
2020/07/12,09:20,0.646,0.916,0.583,1.114,0.789,0.385,0.659,0.622,�k�k��,3.7,��
2020/07/12,09:30,0.648,0.917,0.582,1.111,0.792,0.385,0.660,0.622,�k�k��,2.3,��
2020/07/12,09:40,0.648,0.917,0.583,1.113,0.790,0.385,0.659,0.623,�k�k��,2.6,��
2020/07/12,09:50,0.647,0.916,0.583,1.113,0.790,0.386,0.661,0.620,�k�k��,3.3,��
2020/07/12,10:00,0.646,0.917,0.585,1.111,0.787,0.385,0.658,0.622,�k�k��,2.8,��
2020/07/12,10:10,0.646,0.917,0.583,1.113,0.789,0.386,0.661,0.624,�k�k��,3.1,��
2020/07/12,10:20,0.649,0.917,0.583,1.113,0.790,0.385,0.660,0.622,�k�k��,2.6,��
2020/07/12,10:30,0.647,0.918,0.584,1.113,0.791,0.385,0.661,0.623,�k�k��,2.9,��
2020/07/12,10:40,0.650,0.918,0.585,1.114,0.790,0.385,0.661,0.624,�k�k��,3.6,��
2020/07/12,10:50,0.649,0.920,0.584,1.115,0.790,0.387,0.661,0.621,�k�k��,4.2,��
2020/07/12,11:00,0.649,0.919,0.584,1.113,0.794,0.385,0.662,0.623,�k�k��,4.1,��
2020/07/12,11:10,0.648,0.922,0.585,1.115,0.793,0.385,0.660,0.623,�k�k��,5.1,��
2020/07/12,11:20,0.650,0.921,0.585,1.113,0.792,0.384,0.663,0.624,�k�k��,5.4,��
2020/07/12,11:30,0.650,0.923,0.585,1.115,0.793,0.385,0.661,0.622,�k�k��,4.5,��
2020/07/12,11:40,0.649,0.922,0.584,1.111,0.795,0.387,0.664,0.623,�k,5.4,��
2020/07/12,11:50,0.652,0.921,0.586,1.114,0.794,0.385,0.663,0.623,�k�k��,5.7,��
2020/07/12,12:00,0.650,0.922,0.588,1.114,0.796,0.386,0.663,0.624,�k�k��,6.1,��
2020/07/12,12:10,0.650,0.922,0.588,1.115,0.792,0.386,0.662,0.624,�k�k��,6.5,�L
2020/07/12,12:20,0.649,0.922,0.586,1.115,0.794,0.386,0.661,0.623,�k,5.6,�L
2020/07/12,12:30,0.650,0.924,0.585,1.116,0.792,0.386,0.661,0.624,�k,5.9,�L
2020/07/12,12:40,0.649,0.922,0.588,1.118,0.793,0.385,0.664,0.623,�k,7.1,�L
2020/07/12,12:50,0.650,0.923,0.586,1.115,0.792,0.385,0.661,0.622,�k,5.8,�L
2020/07/12,13:00,0.649,0.920,0.584,1.113,0.791,0.386,0.663,0.623,�k�k��,6.5,�L
2020/07/12,13:10,0.649,0.919,0.586,1.118,0.793,0.385,0.663,0.622,�k,7.0,�L
2020/07/12,13:20,0.649,0.917,0.585,1.117,0.793,0.386,0.660,0.621,�k,8.7,�L
2020/07/12,13:30,0.647,0.916,0.584,1.114,0.792,0.384,0.661,0.622,�k,7.9,�L
2020/07/12,13:40,0.647,0.914,0.584,1.114,0.790,0.384,0.661,0.622,�k,8.1,�L
2020/07/12,13:50,0.647,0.913,0.583,1.112,0.789,0.384,0.661,0.622,�k,7.1,�L
2020/07/12,14:00,0.644,0.912,0.583,1.111,0.789,0.385,0.657,0.622,�k,6.6,�L
2020/07/12,14:10,0.646,0.917,0.583,1.113,0.791,0.385,0.659,0.622,�k,6.7,�L
2020/07/12,14:20,0.645,0.916,0.584,1.114,0.791,0.385,0.659,0.621,�k,7.6,�L
2020/07/12,14:30,0.645,0.913,0.583,1.114,0.789,0.386,0.659,0.620,�k,5.1,�L
2020/07/12,14:40,0.644,0.914,0.583,1.112,0.789,0.386,0.659,0.620,�k�k��,7.6,�L
2020/07/12,14:50,0.645,0.913,0.583,1.113,0.788,0.385,0.657,0.621,�k,8.5,�L
2020/07/12,15:00,0.646,0.915,0.583,1.113,0.786,0.386,0.657,0.620,�k,6.1,�L
2020/07/12,15:10,0.644,0.914,0.584,1.112,0.790,0.386,0.658,0.620,�k�k��,7.0,�L
2020/07/12,15:20,0.645,0.912,0.584,1.112,0.789,0.386,0.658,0.620,�k,6.7,�L
2020/07/12,15:30,0.645,0.911,0.582,1.109,0.789,0.384,0.658,0.620,�k,7.6,�L
2020/07/12,15:40,0.644,0.913,0.583,1.113,0.789,0.386,0.657,0.621,�k,6.3,�L
2020/07/12,15:50,0.646,0.914,0.584,1.113,0.788,0.386,0.658,0.619,�k,6.9,�L
2020/07/12,16:00,0.643,0.912,0.584,1.112,0.788,0.385,0.659,0.622,�k,8.2,�L
2020/07/12,16:10,0.644,0.912,0.584,1.113,0.789,0.386,0.656,0.620,�k,9.6,�L
2020/07/12,16:20,0.646,0.914,0.583,1.112,0.787,0.385,0.657,0.622,�k,7.6,�L
2020/07/12,16:30,0.643,0.913,0.583,1.111,0.789,0.384,0.657,0.621,�k,6.7,�L
2020/07/12,16:40,0.645,0.915,0.585,1.112,0.787,0.386,0.657,0.621,�k,7.1,�L
2020/07/12,16:50,0.644,0.913,0.584,1.112,0.790,0.384,0.657,0.622,�k,6.7,�L
2020/07/12,17:00,0.648,0.913,0.585,1.112,0.789,0.386,0.657,0.620,�k,5.2,�L
2020/07/12,17:10,0.644,0.914,0.583,1.114,0.789,0.385,0.657,0.623,�k,7.1,�L
2020/07/12,17:20,0.644,0.914,0.584,1.110,0.787,0.386,0.657,0.621,�k,7.8,�L
2020/07/12,17:30,0.644,0.915,0.585,1.112,0.786,0.385,0.658,0.621,�k,7.2,�L
2020/07/12,17:40,0.644,0.915,0.583,1.113,0.789,0.384,0.657,0.622,�k,7.1,�L
2020/07/12,17:50,0.645,0.914,0.584,1.112,0.788,0.385,0.658,0.621,�k,6.2,�L
2020/07/12,18:00,0.643,0.918,0.583,1.113,0.788,0.385,0.656,0.621,�k,7.0,��
2020/07/12,18:10,0.645,0.914,0.585,1.114,0.790,0.386,0.656,0.620,�k,7.4,�L
2020/07/12,18:20,0.644,0.917,0.585,1.112,0.788,0.383,0.657,0.624,�k,6.8,�L
2020/07/12,18:30,0.647,0.916,0.586,1.113,0.790,0.384,0.657,0.622,�k,7.3,�L
2020/07/12,18:40,0.644,0.915,0.585,1.113,0.788,0.384,0.658,0.623,�k,6.8,�L
2020/07/12,18:50,0.643,0.915,0.584,1.111,0.789,0.385,0.657,0.621,�k,8.1,�L
2020/07/12,19:00,0.643,0.917,0.585,1.113,0.788,0.384,0.658,0.622,�k,7.2,�L
2020/07/12,19:10,0.645,0.916,0.585,1.115,0.789,0.384,0.657,0.621,�k,7.2,�L
2020/07/12,19:20,0.645,0.914,0.585,1.111,0.788,0.384,0.657,0.623,�k,8.0,��
2020/07/12,19:30,0.644,0.915,0.584,1.113,0.791,0.386,0.658,0.621,�k�k��,7.6,��
2020/07/12,19:40,0.645,0.916,0.585,1.112,0.789,0.385,0.657,0.622,�k,7.8,�L
2020/07/12,19:50,0.645,0.916,0.584,1.111,0.790,0.385,0.658,0.623,�k,7.8,�L
2020/07/12,20:00,0.643,0.916,0.583,1.111,0.790,0.383,0.659,0.623,�k,7.5,��
2020/07/12,20:10,0.643,0.917,0.584,1.114,0.789,0.385,0.659,0.624,�k,6.0,��
2020/07/12,20:20,0.645,0.919,0.584,1.113,0.793,0.384,0.659,0.625,�k,5.8,��
2020/07/12,20:30,0.645,0.919,0.585,1.115,0.791,0.384,0.658,0.624,�k,7.6,�L
2020/07/12,20:40,0.646,0.918,0.585,1.115,0.791,0.385,0.658,0.623,�k,6.3,�L
2020/07/12,20:50,0.644,0.916,0.585,1.113,0.791,0.382,0.659,0.622,�k,6.7,�L
2020/07/12,21:00,0.644,0.918,0.586,1.115,0.792,0.384,0.658,0.622,�k,6.5,��
2020/07/12,21:10,0.644,0.916,0.586,1.114,0.791,0.384,0.657,0.623,�k�k��,6.8,��
2020/07/12,21:20,0.645,0.918,0.585,1.114,0.791,0.383,0.658,0.624,�k,6.0,��
2020/07/12,21:30,0.644,0.917,0.584,1.115,0.791,0.384,0.658,0.623,�k,5.5,��
2020/07/12,21:40,0.643,0.917,0.585,1.115,0.788,0.385,0.658,0.622,�k,4.8,��
2020/07/12,21:50,0.644,0.920,0.586,1.116,0.790,0.384,0.658,0.623,�k,5.8,��
2020/07/12,22:00,0.643,0.919,0.583,1.115,0.791,0.386,0.659,0.624,�k,5.9,��
2020/07/12,22:10,0.646,0.919,0.584,1.115,0.790,0.384,0.659,0.622,�k,6.7,��
2020/07/12,22:20,0.645,0.921,0.586,1.116,0.792,0.386,0.658,0.624,�k,6.7,��
2020/07/12,22:30,0.648,0.919,0.586,1.117,0.789,0.385,0.659,0.624,�k,6.0,��
2020/07/12,22:40,0.648,0.921,0.586,1.117,0.791,0.384,0.659,0.624,�k,5.2,��
2020/07/12,22:50,0.648,0.920,0.585,1.119,0.792,0.385,0.658,0.626,�k,4.5,��
2020/07/12,23:00,0.645,0.920,0.585,1.117,0.790,0.384,0.659,0.625,�k,3.2,��
2020/07/12,23:10,0.647,0.921,0.584,1.118,0.791,0.384,0.658,0.624,�k,3.8,��
2020/07/12,23:20,0.646,0.920,0.586,1.114,0.790,0.384,0.659,0.625,�k�k��,3.1,��
2020/07/12,23:30,0.646,0.922,0.585,1.117,0.791,0.386,0.660,0.624,�k�k��,3.6,��
2020/07/12,23:40,0.647,0.921,0.585,1.116,0.795,0.385,0.658,0.625,�k�k��,3.7,��
2020/07/12,23:50,0.646,0.919,0.586,1.117,0.794,0.385,0.658,0.625,�k�k��,3.4,��
